| time (UTC) | temp F | wind direction | speed MPH | gust MPH | rain 1hr in | rain 24hr in | rain mn in | humidity % | barometer mb |
| 20260904090015 | 78 | 159 | 3.0 | 6.0 | 0.00 | 0.00 | 0.00 | 51 | 1019.2 |
| 20260904084507 | 77 | 221 | 2.0 | 5.0 | 0.00 | 0.00 | 0.00 | 52 | 1019.3 |
| 20260904083002 | 76 | 186 | 2.0 | 6.0 | 0.00 | 0.00 | 0.00 | 54 | 1019.2 |
| 20260904081557 | 76 | 175 | 4.0 | 8.0 | 0.00 | 0.00 | 0.00 | 54 | 1019.2 |
| 20260904080111 | 73 | 157 | 3.0 | 7.0 | 0.00 | 0.00 | 0.00 | 59 | 1019.2 |
| 20260904074558 | 72 | 189 | 2.0 | 8.0 | 0.00 | 0.00 | 0.00 | 61 | 1019.2 |
| 20260904073044 | 70 | 145 | 2.0 | 5.0 | 0.00 | 0.00 | 0.00 | 66 | 1019.1 |
| 20260904071540 | 67 | 150 | 2.0 | 6.0 | 0.00 | 0.00 | 0.00 | 70 | 1019.1 |
| 20260904070041 | 64 | 159 | 0.0 | 0.0 | 0.00 | 0.00 | 0.00 | 77 | 1019.2 |
| 20260904064530 | 62 | 146 | 0.0 | 0.0 | 0.00 | 0.00 | 0.00 | 81 | 1019.2 |
| 20260904063027 | 61 | 132 | 0.0 | 0.0 | 0.00 | 0.00 | 0.00 | 83 | 1019.3 |
| 20260904061528 | 59 | 147 | 0.0 | 0.0 | 0.00 | 0.00 | 0.00 | 86 | 1019.4 |
| 20260904060020 | 58 | 147 | 0.0 | 0.0 | 0.00 | 0.00 | 0.00 | 87 | 1019.2 |
| 20260904054517 | 57 | 147 | 0.0 | 0.0 | 0.00 | 0.00 | 0.00 | 87 | 1019.2 |
| 20260904053011 | 57 | 134 | 0.0 | 0.0 | 0.00 | 0.00 | 0.00 | 87 | 1019.3 |
| 20260904051511 | 57 | 130 | 0.0 | 0.0 | 0.00 | 0.00 | 0.00 | 86 | 1019.3 |
| 20260904050024 | 57 | 124 | 0.0 | 0.0 | 0.00 | 0.00 | 0.00 | 86 | 1019.4 |
| 20260904044516 | 57 | 132 | 0.0 | 0.0 | 0.00 | 0.00 | 0.00 | 87 | 1019.3 |
| 20260904043007 | 57 | 127 | 0.0 | 0.0 | 0.00 | 0.00 | 0.00 | 87 | 1019.4 |
| 20260904041505 | 57 | 123 | 1.0 | 3.0 | 0.00 | 0.00 | 0.00 | 87 | 1019.6 |
| 20260904040004 | 57 | 136 | 0.0 | 0.0 | 0.00 | 0.00 | 0.00 | 87 | 1019.7 |
| 20260904034502 | 57 | 122 | 0.0 | 0.0 | 0.00 | 0.00 | 0.00 | 88 | 1019.8 |
| 20260904033107 | 57 | 142 | 0.0 | 0.0 | 0.00 | 0.00 | 0.00 | 88 | 1020.0 |
| 20260904031600 | 57 | 126 | 0.0 | 0.0 | 0.00 | 0.00 | 0.00 | 88 | 1020.0 |
| 20260904030059 | 58 | 128 | 0.0 | 0.0 | 0.00 | 0.00 | 0.00 | 88 | 1020.0 |
| 20260904024615 | 58 | 128 | 0.0 | 0.0 | 0.00 | 0.00 | 0.00 | 87 | 1020.1 |
| 20260904023104 | 58 | 123 | 0.0 | 0.0 | 0.00 | 0.00 | 0.00 | 87 | 1020.3 |
| 20260904021557 | 58 | 125 | 0.0 | 0.0 | 0.00 | 0.00 | 0.00 | 87 | 1020.4 |
| 20260904020052 | 58 | 125 | 0.0 | 0.0 | 0.00 | 0.00 | 0.00 | 87 | 1020.5 |
| 20260904014604 | 58 | 125 | 0.0 | 0.0 | 0.00 | 0.00 | 0.00 | 87 | 1020.7 |
| 20260904013049 | 59 | 125 | 0.0 | 0.0 | 0.00 | 0.00 | 0.00 | 86 | 1020.7 |
| 20260904011549 | 59 | 121 | 0.0 | 0.0 | 0.00 | 0.00 | 0.00 | 85 | 1020.8 |
| 20260904010049 | 59 | 121 | 0.0 | 0.0 | 0.00 | 0.00 | 0.00 | 84 | 1020.8 |
| 20260904004544 | 60 | 120 | 0.0 | 0.0 | 0.00 | 0.00 | 0.00 | 85 | 1020.9 |
| 20260904003042 | 60 | 121 | 0.0 | 0.0 | 0.00 | 0.00 | 0.00 | 84 | 1021.0 |
| 20260904001541 | 60 | 121 | 0.0 | 0.0 | 0.00 | 0.00 | 0.00 | 83 | 1021.1 |
| 20260903234538 | 61 | 121 | 0.0 | 0.0 | 0.00 | 0.00 | 0.00 | 83 | 1021.3 |
| 20260903233048 | 61 | 121 | 0.0 | 0.0 | 0.00 | 0.00 | 0.00 | 82 | 1021.3 |
| 20260903231534 | 62 | 121 | 0.0 | 0.0 | 0.00 | 0.00 | 0.00 | 81 | 1021.3 |
| 20260903230033 | 62 | 121 | 0.0 | 0.0 | 0.00 | 0.00 | 0.00 | 80 | 1021.2 |
| 20260903224540 | 63 | 121 | 0.0 | 0.0 | 0.00 | 0.00 | 0.00 | 80 | 1021.3 |
| 20260903223043 | 63 | 121 | 0.0 | 0.0 | 0.00 | 0.00 | 0.00 | 79 | 1021.4 |
| 20260903221528 | 64 | 121 | 0.0 | 0.0 | 0.00 | 0.00 | 0.00 | 78 | 1021.4 |
| 20260903220024 | 64 | 121 | 0.0 | 0.0 | 0.00 | 0.00 | 0.00 | 77 | 1021.3 |
| 20260903214524 | 65 | 121 | 0.0 | 0.0 | 0.00 | 0.00 | 0.00 | 75 | 1021.3 |
| 20260903213039 | 65 | 120 | 0.0 | 0.0 | 0.00 | 0.00 | 0.00 | 74 | 1021.5 |
| 20260903211526 | 66 | 121 | 0.0 | 0.0 | 0.00 | 0.00 | 0.00 | 74 | 1021.5 |
| 20260903210023 | 66 | 121 | 0.0 | 0.0 | 0.00 | 0.00 | 0.00 | 73 | 1021.5 |
| 20260903204522 | 67 | 121 | 0.0 | 2.0 | 0.00 | 0.00 | 0.00 | 72 | 1021.6 |
| 20260903203028 | 67 | 122 | 0.0 | 0.0 | 0.00 | 0.00 | 0.00 | 69 | 1021.5 |
| 20260903201522 | 68 | 122 | 0.0 | 2.0 | 0.00 | 0.00 | 0.00 | 68 | 1021.5 |
| 20260903200021 | 69 | 68 | 1.0 | 2.0 | 0.00 | 0.00 | 0.00 | 68 | 1021.5 |
| 20260903194620 | 70 | 67 | 1.0 | 2.0 | 0.00 | 0.00 | 0.00 | 65 | 1021.5 |
| 20260903193020 | 71 | 67 | 1.0 | 3.0 | 0.00 | 0.00 | 0.00 | 62 | 1021.4 |
| 20260903191556 | 72 | 5 | 1.0 | 2.0 | 0.00 | 0.00 | 0.00 | 61 | 1021.3 |
| 20260903190100 | 74 | 360 | 0.0 | 0.0 | 0.00 | 0.00 | 0.00 | 58 | 1021.1 |
| 20260903184556 | 75 | 360 | 0.0 | 0.0 | 0.00 | 0.00 | 0.00 | 54 | 1020.9 |
| 20260903183055 | 77 | 360 | 0.0 | 2.0 | 0.00 | 0.00 | 0.00 | 50 | 1020.8 |
| 20260903181556 | 79 | 355 | 1.0 | 3.0 | 0.00 | 0.00 | 0.00 | 46 | 1020.8 |
| 20260903180057 | 80 | 355 | 1.0 | 4.0 | 0.00 | 0.00 | 0.00 | 44 | 1020.9 |
| 20260903174554 | 81 | 355 | 1.0 | 3.0 | 0.00 | 0.00 | 0.00 | 42 | 1020.7 |
| 20260903173053 | 82 | 355 | 2.0 | 5.0 | 0.00 | 0.00 | 0.00 | 40 | 1020.8 |
| 20260903171601 | 83 | 316 | 3.0 | 6.0 | 0.00 | 0.00 | 0.00 | 38 | 1020.7 |
| 20260903164551 | 84 | 16 | 3.0 | 6.0 | 0.00 | 0.00 | 0.00 | 37 | 1020.9 |
| 20260903163050 | 84 | 360 | 5.0 | 9.0 | 0.00 | 0.00 | 0.00 | 36 | 1020.8 |
| 20260903161549 | 85 | 28 | 2.0 | 8.0 | 0.00 | 0.00 | 0.00 | 36 | 1020.9 |
| 20260903160050 | 86 | 51 | 1.0 | 6.0 | 0.00 | 0.00 | 0.00 | 35 | 1020.9 |
| 20260903154554 | 86 | 317 | 4.0 | 10.0 | 0.00 | 0.00 | 0.00 | 35 | 1021.0 |
| 20260903153047 | 86 | 307 | 3.0 | 10.0 | 0.00 | 0.00 | 0.00 | 35 | 1021.0 |
| 20260903151546 | 86 | 348 | 2.0 | 6.0 | 0.00 | 0.00 | 0.00 | 37 | 1021.0 |
| 20260903150057 | 86 | 321 | 5.0 | 10.0 | 0.00 | 0.00 | 0.00 | 36 | 1021.0 |
| 20260903144543 | 85 | 360 | 2.0 | 7.0 | 0.00 | 0.00 | 0.00 | 37 | 1021.0 |
| 20260903143042 | 85 | 5 | 3.0 | 8.0 | 0.00 | 0.00 | 0.00 | 38 | 1021.2 |
| 20260903141541 | 86 | 340 | 5.0 | 8.0 | 0.00 | 0.00 | 0.00 | 37 | 1021.2 |
| 20260903140041 | 85 | 293 | 4.0 | 9.0 | 0.00 | 0.00 | 0.00 | 36 | 1021.3 |
| 20260903134545 | 85 | 256 | 2.0 | 7.0 | 0.00 | 0.00 | 0.00 | 37 | 1021.3 |
| 20260903133038 | 85 | 343 | 3.0 | 6.0 | 0.00 | 0.00 | 0.00 | 37 | 1021.4 |
| 20260903131538 | 85 | 355 | 4.0 | 7.0 | 0.00 | 0.00 | 0.00 | 37 | 1021.5 |
| 20260903130043 | 85 | 108 | 1.0 | 6.0 | 0.00 | 0.00 | 0.00 | 36 | 1021.6 |
| 20260903124534 | 84 | 54 | 5.0 | 13.0 | 0.00 | 0.00 | 0.00 | 36 | 1021.7 |
| 20260903123040 | 84 | 171 | 2.0 | 6.0 | 0.00 | 0.00 | 0.00 | 39 | 1021.8 |
| 20260903121552 | 84 | 340 | 3.0 | 8.0 | 0.00 | 0.00 | 0.00 | 39 | 1021.9 |
| 20260903120029 | 82 | 32 | 5.0 | 10.0 | 0.00 | 0.00 | 0.00 | 39 | 1022.0 |
| 20260903114527 | 82 | 319 | 2.0 | 7.0 | 0.00 | 0.00 | 0.00 | 40 | 1022.1 |
| 20260903113026 | 82 | 78 | 3.0 | 11.0 | 0.00 | 0.00 | 0.00 | 42 | 1022.2 |
| 20260903111525 | 81 | 304 | 4.0 | 9.0 | 0.00 | 0.00 | 0.00 | 43 | 1022.4 |
| 20260903110020 | 81 | 331 | 4.0 | 10.0 | 0.00 | 0.00 | 0.00 | 42 | 1022.8 |
| 20260903104523 | 81 | 311 | 5.0 | 9.0 | 0.00 | 0.00 | 0.00 | 43 | 1023.0 |
| 20260903103014 | 80 | 339 | 2.0 | 7.0 | 0.00 | 0.00 | 0.00 | 44 | 1022.8 |
| 20260903101510 | 80 | 59 | 3.0 | 7.0 | 0.00 | 0.00 | 0.00 | 45 | 1023.0 |
| 20260903100017 | 78 | 360 | 3.0 | 8.0 | 0.00 | 0.00 | 0.00 | 49 | 1023.0 |
| 20260903094502 | 78 | 17 | 3.0 | 7.0 | 0.00 | 0.00 | 0.00 | 50 | 1023.2 |
| 20260903093103 | 77 | 329 | 3.0 | 6.0 | 0.00 | 0.00 | 0.00 | 53 | 1023.2 |
| 20260903091559 | 76 | 31 | 2.0 | 5.0 | 0.00 | 0.00 | 0.00 | 53 | 1023.3 |